TimePST,TemperatureF,Dew PointF,Humidity,Sea Level PressureIn,VisibilityMPH,Wind Direction,Wind SpeedMPH,Gust SpeedMPH,PrecipitationIn,Events,Conditions,WindDirDegrees,DateUTC
12:56 AM,44.1,10.9,26,30.19,10.0,SE,15.0,-,N/A,,Clear,130,2013-01-21 08:56:00
1:56 AM,45.0,9.0,23,30.18,10.0,SE,15.0,21.9,N/A,,Clear,130,2013-01-21 09:56:00
2:56 AM,45.0,8.1,22,30.18,10.0,ESE,16.1,-,N/A,,Clear,120,2013-01-21 10:56:00
3:56 AM,44.1,9.0,24,30.17,10.0,ESE,19.6,26.5,N/A,,Clear,120,2013-01-21 11:56:00
4:56 AM,42.1,10.0,27,30.17,10.0,ESE,13.8,-,N/A,,Clear,120,2013-01-21 12:56:00
5:56 AM,43.0,9.0,25,30.15,10.0,ESE,20.7,29.9,N/A,,Clear,120,2013-01-21 13:56:00
6:56 AM,41.0,10.0,28,30.15,10.0,ESE,19.6,-,N/A,,Clear,120,2013-01-21 14:56:00
7:56 AM,41.0,10.9,29,30.15,10.0,SE,17.3,-,N/A,,Clear,130,2013-01-21 15:56:00
8:56 AM,44.1,9.0,24,30.16,10.0,SE,17.3,-,N/A,,Clear,130,2013-01-21 16:56:00
9:56 AM,46.9,8.1,21,30.16,10.0,SE,17.3,-,N/A,,Clear,130,2013-01-21 17:56:00
10:56 AM,48.9,9.0,20,30.16,10.0,SE,12.7,-,N/A,,Clear,130,2013-01-21 18:56:00
11:56 AM,53.1,9.0,17,30.14,10.0,SSE,6.9,-,N/A,,Clear,160,2013-01-21 19:56:00
12:56 PM,54.0,10.0,17,30.12,10.0,Variable,3.5,-,N/A,,Clear,0,2013-01-21 20:56:00
1:56 PM,54.0,10.0,17,30.11,10.0,Variable,3.5,-,N/A,,Clear,0,2013-01-21 21:56:00
2:56 PM,54.0,12.9,20,30.12,10.0,South,4.6,-,N/A,,Clear,180,2013-01-21 22:56:00
3:56 PM,52.0,10.9,19,30.12,10.0,South,6.9,-,N/A,,Clear,170,2013-01-21 23:56:00
4:56 PM,48.9,12.9,24,30.13,10.0,South,10.4,-,N/A,,Clear,170,2013-01-22 00:56:00
5:56 PM,48.9,10.9,22,30.12,10.0,SE,9.2,-,N/A,,Clear,140,2013-01-22 01:56:00
6:56 PM,48.9,10.9,22,30.12,10.0,SE,11.5,-,N/A,,Clear,130,2013-01-22 02:56:00
7:56 PM,48.0,12.0,24,30.11,10.0,SE,11.5,-,N/A,,Clear,130,2013-01-22 03:56:00
8:56 PM,46.9,15.1,28,30.11,10.0,ESE,10.4,-,N/A,,Clear,120,2013-01-22 04:56:00
9:56 PM,46.9,12.0,24,30.11,10.0,SE,8.1,-,N/A,,Clear,140,2013-01-22 05:56:00
10:56 PM,46.9,10.9,23,30.11,10.0,SSE,10.4,-,N/A,,Clear,160,2013-01-22 06:56:00
11:56 PM,46.0,12.9,26,30.08,10.0,SE,8.1,-,N/A,,Clear,140,2013-01-22 07:56:00